,,,PA_Meas_PMT16A,,PR_Meas_QMR101_102,,RH_Meas_QMH101,,SR_Meas_QMS101,,TA_Meas_QMH101,,GenWind,,GenWind,
date,time,status,PA,status,PR,status,RH,status,SR,status,TA,status,DirAvg,status,SpdAvg,
2011-01-19, 00:00:04,VALID,1009.62,VALID,0,VALID,102.65,VALID,0.105969,VALID,23.322,VALID,302,VALID,0,
2011-01-19, 00:01:04,VALID,1009.59,VALID,0,VALID,102.627,VALID,0.105969,VALID,23.3008,VALID,302,VALID,0,
2011-01-19, 00:02:04,VALID,1009.59,VALID,0,VALID,102.589,VALID,0.105969,VALID,23.322,VALID,302,VALID,0,
2011-01-19, 00:03:04,VALID,1009.58,VALID,0,VALID,102.582,VALID,0.211938,VALID,23.322,VALID,302,VALID,0,
2011-01-19, 00:04:04,VALID,1009.55,VALID,0,VALID,102.551,VALID,0.105969,VALID,23.3026,VALID,302,VALID,0.166016,
2011-01-19, 00:05:04,VALID,1009.56,VALID,0,VALID,102.566,VALID,0.105969,VALID,23.3026,VALID,302,VALID,0.120312,
2011-01-19, 00:06:04,VALID,1009.54,VALID,0,VALID,102.566,VALID,0.105969,VALID,23.3026,VALID,302,VALID,0,
2011-01-19, 00:07:04,VALID,1009.53,VALID,0,VALID,102.551,VALID,0.105969,VALID,23.2831,VALID,302,VALID,0,
2011-01-19, 00:08:04,VALID,1009.53,VALID,0,VALID,102.597,VALID,0.211938,VALID,23.2636,VALID,302,VALID,0,
2011-01-19, 00:09:04,VALID,1009.52,VALID,0,VALID,102.643,VALID,0.105969,VALID,23.2246,VALID,302,VALID,0,
2011-01-19, 00:10:04,VALID,1009.51,VALID,0,VALID,102.719,VALID,0.105969,VALID,23.1839,VALID,302,VALID,0,
2011-01-19, 00:11:04,VALID,1009.52,VALID,0,VALID,102.788,VALID,0.105969,VALID,23.1874,VALID,302,VALID,0,
2011-01-19, 00:12:04,VALID,1009.51,VALID,0,VALID,102.864,VALID,0,VALID,23.1679,VALID,302,VALID,0,
2011-01-19, 00:13:04,VALID,1009.5,VALID,0,VALID,102.94,VALID,0,VALID,23.1679,VALID,302,VALID,0,
2011-01-19, 00:14:04,VALID,1009.48,VALID,0,VALID,103.009,VALID,0,VALID,23.1679,VALID,302,VALID,0,
2011-01-19, 00:15:04,VALID,1009.45,VALID,0,VALID,103.093,VALID,0,VALID,23.129,VALID,302,VALID,0.0429688,
2011-01-19, 00:16:04,VALID,1009.43,VALID,0,VALID,103.169,VALID,0,VALID,23.1485,VALID,302,VALID,0.154297,
2011-01-19, 00:17:04,VALID,1009.41,VALID,0,VALID,103.199,VALID,0,VALID,23.1485,VALID,302,VALID,0.101172,
2011-01-19, 00:18:04,VALID,1009.39,VALID,0,VALID,103.222,VALID,0,VALID,23.1679,VALID,302,VALID,0,
2011-01-19, 00:19:04,VALID,1009.39,VALID,0,VALID,103.199,VALID,0,VALID,23.1485,VALID,302,VALID,0,
2011-01-19, 00:20:04,VALID,1009.38,VALID,0,VALID,103.222,VALID,0,VALID,23.129,VALID,302,VALID,0,
2011-01-19, 00:21:04,VALID,1009.37,VALID,0,VALID,103.222,VALID,0,VALID,23.129,VALID,302,VALID,0,
2011-01-19, 00:22:04,VALID,1009.38,VALID,0,VALID,103.245,VALID,0,VALID,23.1095,VALID,302,VALID,0,
2011-01-19, 00:23:04,VALID,1009.38,VALID,0,VALID,103.276,VALID,0,VALID,23.1095,VALID,302,VALID,0,
2011-01-19, 00:24:04,VALID,1009.38,VALID,0,VALID,103.298,VALID,0,VALID,23.1095,VALID,302,VALID,0,
2011-01-19, 00:25:04,VALID,1009.37,VALID,0,VALID,103.314,VALID,0,VALID,23.1095,VALID,302,VALID,0,
2011-01-19, 00:26:04,VALID,1009.34,VALID,0,VALID,103.298,VALID,0,VALID,23.0883,VALID,302,VALID,0,
2011-01-19, 00:27:04,VALID,1009.32,VALID,0,VALID,103.352,VALID,0,VALID,23.09,VALID,302,VALID,0,
2011-01-19, 00:28:04,VALID,1009.3,VALID,0,VALID,103.344,VALID,0,VALID,23.09,VALID,302,VALID,0.117969,
2011-01-19, 00:29:04,VALID,1009.3,VALID,0,VALID,103.382,VALID,0,VALID,23.0705,VALID,302,VALID,0,
2011-01-19, 00:30:04,VALID,1009.27,VALID,0,VALID,103.398,VALID,0,VALID,23.0918,VALID,302,VALID,0,
2011-01-19, 00:31:04,VALID,1009.25,VALID,0,VALID,103.436,VALID,0,VALID,23.0705,VALID,302,VALID,0,
2011-01-19, 00:32:04,VALID,1009.25,VALID,0,VALID,103.413,VALID,0,VALID,23.0705,VALID,302,VALID,0,
2011-01-19, 00:33:04,VALID,1009.23,VALID,0,VALID,103.428,VALID,0,VALID,23.0511,VALID,302,VALID,0.214062,
2011-01-19, 00:34:04,VALID,1009.18,VALID,0,VALID,103.42,VALID,0,VALID,23.0316,VALID,302,VALID,0.391797,
2011-01-19, 00:35:04,VALID,1009.17,VALID,0,VALID,103.443,VALID,0,VALID,23.0316,VALID,302,VALID,0.236328,
2011-01-19, 00:36:04,VALID,1009.15,VALID,0,VALID,103.428,VALID,0,VALID,23.0316,VALID,302,VALID,0.499609,
2011-01-19, 00:37:04,VALID,1009.13,VALID,0,VALID,103.436,VALID,0,VALID,23.0121,VALID,302,VALID,0.348828,
2011-01-19, 00:38:04,VALID,1009.12,VALID,0,VALID,103.428,VALID,0,VALID,23.0121,VALID,302,VALID,0.282813,
2011-01-19, 00:39:04,VALID,1009.12,VALID,0,VALID,103.398,VALID,0,VALID,22.9731,VALID,302,VALID,0.143359,
2011-01-19, 00:40:04,VALID,1009.1,VALID,0,VALID,103.405,VALID,0,VALID,22.9731,VALID,302,VALID,0.0605469,
2011-01-19, 00:41:04,VALID,1009.11,VALID,0,VALID,103.451,VALID,0,VALID,22.9731,VALID,302,VALID,0,
2011-01-19, 00:42:04,VALID,1009.14,VALID,0,VALID,103.474,VALID,0,VALID,22.9536,VALID,302,VALID,0,
2011-01-19, 00:43:04,VALID,1009.13,VALID,0,VALID,103.497,VALID,0,VALID,22.9342,VALID,302,VALID,0,
2011-01-19, 00:44:04,VALID,1009.09,VALID,0,VALID,103.489,VALID,0,VALID,22.9147,VALID,302,VALID,0,
2011-01-19, 00:45:04,VALID,1009.1,VALID,0,VALID,103.52,VALID,0,VALID,22.9147,VALID,302,VALID,0.120312,
2011-01-19, 00:46:04,VALID,1009.1,VALID,0,VALID,103.565,VALID,0,VALID,22.9147,VALID,302,VALID,0.351172,
2011-01-19, 00:47:04,VALID,1009.09,VALID,0,VALID,103.619,VALID,0,VALID,22.9147,VALID,302,VALID,0.280469,
2011-01-19, 00:48:04,VALID,1009.05,VALID,0,VALID,103.657,VALID,0,VALID,22.9147,VALID,302,VALID,0.126172,
2011-01-19, 00:49:04,VALID,1009.04,VALID,0,VALID,103.68,VALID,0,VALID,22.9342,VALID,302,VALID,0,
2011-01-19, 00:50:04,VALID,1009.05,VALID,0,VALID,103.68,VALID,0,VALID,22.9342,VALID,302,VALID,0,
2011-01-19, 00:51:04,VALID,1009.06,VALID,0,VALID,103.703,VALID,0,VALID,22.9342,VALID,302,VALID,0,
2011-01-19, 00:52:04,VALID,1009.05,VALID,0,VALID,103.695,VALID,0,VALID,22.9554,VALID,302,VALID,0,
2011-01-19, 00:53:04,VALID,1009.08,VALID,0,VALID,103.733,VALID,0,VALID,22.9342,VALID,302,VALID,0,
2011-01-19, 00:54:04,VALID,1009.06,VALID,0,VALID,103.726,VALID,0,VALID,22.9342,VALID,302,VALID,0,
2011-01-19, 00:55:04,VALID,1009.05,VALID,0,VALID,103.733,VALID,0,VALID,22.9342,VALID,302,VALID,0,
2011-01-19, 00:56:04,VALID,1009.04,VALID,0,VALID,103.718,VALID,0,VALID,22.9147,VALID,302,VALID,0,
2011-01-19, 00:57:04,VALID,1009.05,VALID,0,VALID,103.726,VALID,0,VALID,22.9147,VALID,302,VALID,0,
2011-01-19, 00:58:04,VALID,1009.05,VALID,0,VALID,103.741,VALID,0,VALID,22.9147,VALID,302,VALID,0,
2011-01-19, 00:59:04,VALID,1009.04,VALID,0,VALID,103.771,VALID,0,VALID,22.9147,VALID,302,VALID,0,
2011-01-19, 01:00:04,VALID,1009.01,VALID,0,VALID,103.733,VALID,0,VALID,22.9342,VALID,302,VALID,0,
2011-01-19, 01:01:04,VALID,1008.99,VALID,0,VALID,103.764,VALID,0,VALID,22.9342,VALID,302,VALID,0,
2011-01-19, 01:02:04,VALID,1008.99,VALID,0,VALID,103.756,VALID,0,VALID,22.9342,VALID,302,VALID,0,
2011-01-19, 01:03:04,VALID,1008.97,VALID,0,VALID,103.787,VALID,0,VALID,22.9342,VALID,302,VALID,0,
2011-01-19, 01:04:04,VALID,1008.96,VALID,0,VALID,103.802,VALID,0,VALID,22.9749,VALID,302,VALID,0,
2011-01-19, 01:05:04,VALID,1008.95,VALID,0,VALID,103.817,VALID,0,VALID,22.9536,VALID,302,VALID,0,
2011-01-19, 01:06:04,VALID,1008.96,VALID,0,VALID,103.848,VALID,0,VALID,22.9536,VALID,302,VALID,0,
2011-01-19, 01:07:04,VALID,1008.95,VALID,0,VALID,103.825,VALID,0,VALID,22.9536,VALID,302,VALID,0,
2011-01-19, 01:08:04,VALID,1008.95,VALID,0,VALID,103.848,VALID,0,VALID,22.9731,VALID,302,VALID,0,
2011-01-19, 01:09:04,VALID,1008.96,VALID,0,VALID,103.863,VALID,0,VALID,23.0138,VALID,302,VALID,0,
2011-01-19, 01:10:04,VALID,1008.97,VALID,0,VALID,103.893,VALID,0,VALID,23.0138,VALID,302,VALID,0,
2011-01-19, 01:11:04,VALID,1008.97,VALID,0,VALID,103.886,VALID,0,VALID,23.0138,VALID,302,VALID,0,
2011-01-19, 01:12:04,VALID,1008.98,VALID,0,VALID,103.893,VALID,0,VALID,22.9926,VALID,302,VALID,0,
2011-01-19, 01:13:04,VALID,1008.97,VALID,0,VALID,103.893,VALID,0,VALID,22.9926,VALID,302,VALID,0,
2011-01-19, 01:14:04,VALID,1008.99,VALID,0,VALID,103.878,VALID,0,VALID,22.9926,VALID,302,VALID,0,
2011-01-19, 01:15:04,VALID,1008.98,VALID,0,VALID,103.886,VALID,0,VALID,22.9926,VALID,302,VALID,0,
2011-01-19, 01:16:04,VALID,1008.94,VALID,0,VALID,103.878,VALID,0,VALID,23.0121,VALID,302,VALID,0,
2011-01-19, 01:17:04,VALID,1008.93,VALID,0,VALID,103.893,VALID,0,VALID,23.0121,VALID,302,VALID,0,
2011-01-19, 01:18:04,VALID,1008.9,VALID,0,VALID,103.878,VALID,0,VALID,23.0121,VALID,302,VALID,0,
2011-01-19, 01:19:04,VALID,1008.89,VALID,0,VALID,103.863,VALID,0,VALID,23.0121,VALID,302,VALID,0,
2011-01-19, 01:20:04,VALID,1008.9,VALID,0,VALID,103.87,VALID,0,VALID,23.0121,VALID,302,VALID,0,
2011-01-19, 01:21:04,VALID,1008.87,VALID,0,VALID,103.87,VALID,0,VALID,23.0316,VALID,302,VALID,0,
2011-01-19, 01:22:04,VALID,1008.87,VALID,0,VALID,103.84,VALID,0,VALID,23.0121,VALID,302,VALID,0,
2011-01-19, 01:23:04,VALID,1008.86,VALID,0,VALID,103.832,VALID,0,VALID,23.0121,VALID,302,VALID,0,
2011-01-19, 01:24:04,VALID,1008.85,VALID,0,VALID,103.832,VALID,0,VALID,22.9926,VALID,302,VALID,0,
2011-01-19, 01:25:04,VALID,1008.88,VALID,0,VALID,103.809,VALID,0,VALID,22.9926,VALID,302,VALID,0,
2011-01-19, 01:26:04,VALID,1008.9,VALID,0,VALID,103.817,VALID,0,VALID,23.0138,VALID,302,VALID,0,
2011-01-19, 01:27:04,VALID,1008.9,VALID,0,VALID,103.794,VALID,0,VALID,22.9926,VALID,302,VALID,0,
2011-01-19, 01:28:04,VALID,1008.9,VALID,0,VALID,103.817,VALID,0,VALID,23.0121,VALID,302,VALID,0,
2011-01-19, 01:29:04,VALID,1008.93,VALID,0,VALID,103.832,VALID,0,VALID,23.0121,VALID,302,VALID,0,
2011-01-19, 01:30:04,VALID,1008.94,VALID,0,VALID,103.84,VALID,0,VALID,23.0121,VALID,302,VALID,0,
2011-01-19, 01:31:04,VALID,1008.94,VALID,0,VALID,103.825,VALID,0,VALID,22.9926,VALID,302,VALID,0,
2011-01-19, 01:32:04,VALID,1008.93,VALID,0,VALID,103.832,VALID,0,VALID,22.9926,VALID,302,VALID,0,
2011-01-19, 01:33:04,VALID,1008.93,VALID,0,VALID,103.825,VALID,0,VALID,23.0121,VALID,302,VALID,0,
2011-01-19, 01:34:04,VALID,1008.94,VALID,0,VALID,103.825,VALID,0,VALID,23.0316,VALID,302,VALID,0,
2011-01-19, 01:35:04,VALID,1008.93,VALID,0,VALID,103.84,VALID,0,VALID,23.0316,VALID,302,VALID,0,
2011-01-19, 01:36:04,VALID,1008.95,VALID,0,VALID,103.848,VALID,0,VALID,23.0316,VALID,302,VALID,0,
2011-01-19, 01:37:04,VALID,1008.93,VALID,0,VALID,103.832,VALID,0,VALID,23.0511,VALID,302,VALID,0,
2011-01-19, 01:38:04,VALID,1008.94,VALID,0,VALID,103.832,VALID,0,VALID,23.0511,VALID,302,VALID,0,
2011-01-19, 01:39:04,VALID,1008.94,VALID,0,VALID,103.848,VALID,0,VALID,23.0511,VALID,302,VALID,0,
2011-01-19, 01:40:04,VALID,1008.93,VALID,0,VALID,103.825,VALID,0,VALID,23.0511,VALID,302,VALID,0,
2011-01-19, 01:41:04,VALID,1008.92,VALID,0,VALID,103.809,VALID,0,VALID,23.0316,VALID,302,VALID,0,
2011-01-19, 01:42:04,VALID,1008.96,VALID,0,VALID,103.802,VALID,0,VALID,23.0511,VALID,302,VALID,0,
2011-01-19, 01:43:04,VALID,1008.93,VALID,0,VALID,103.787,VALID,0,VALID,23.0316,VALID,302,VALID,0,
2011-01-19, 01:44:04,VALID,1008.93,VALID,0,VALID,103.794,VALID,0,VALID,23.0316,VALID,302,VALID,0,
2011-01-19, 01:45:04,VALID,1008.92,VALID,0,VALID,103.779,VALID,0,VALID,23.0316,VALID,302,VALID,0,
2011-01-19, 01:46:04,VALID,1008.93,VALID,0,VALID,103.787,VALID,0,VALID,23.0316,VALID,302,VALID,0,
2011-01-19, 01:47:04,VALID,1008.92,VALID,0,VALID,103.794,VALID,0,VALID,23.0511,VALID,302,VALID,0,
2011-01-19, 01:48:04,VALID,1008.92,VALID,0,VALID,103.817,VALID,0,VALID,23.0511,VALID,302,VALID,0,
2011-01-19, 01:49:04,VALID,1008.92,VALID,0,VALID,103.794,VALID,0,VALID,23.0511,VALID,302,VALID,0,
2011-01-19, 01:50:04,VALID,1008.89,VALID,0,VALID,103.802,VALID,0,VALID,23.0511,VALID,302,VALID,0,
2011-01-19, 01:51:04,VALID,1008.88,VALID,0,VALID,103.787,VALID,0,VALID,23.0511,VALID,302,VALID,0,
2011-01-19, 01:52:04,VALID,1008.91,VALID,0,VALID,103.802,VALID,0,VALID,23.0511,VALID,302,VALID,0,
2011-01-19, 01:53:04,VALID,1008.88,VALID,0,VALID,103.817,VALID,0,VALID,23.0918,VALID,302,VALID,0,
2011-01-19, 01:54:04,VALID,1008.88,VALID,0,VALID,103.817,VALID,0,VALID,23.0705,VALID,302,VALID,0,
2011-01-19, 01:55:04,VALID,1008.87,VALID,0,VALID,103.832,VALID,0,VALID,23.09,VALID,302,VALID,0,
2011-01-19, 01:56:04,VALID,1008.89,VALID,0,VALID,103.84,VALID,0,VALID,23.09,VALID,302,VALID,0,
2011-01-19, 01:57:04,VALID,1008.86,VALID,0,VALID,103.832,VALID,0,VALID,23.09,VALID,302,VALID,0,
2011-01-19, 01:58:04,VALID,1008.86,VALID,0,VALID,103.832,VALID,0,VALID,23.1112,VALID,302,VALID,0,
2011-01-19, 01:59:04,VALID,1008.84,VALID,0,VALID,103.832,VALID,0,VALID,23.1112,VALID,302,VALID,0,
2011-01-19, 02:00:04,VALID,1008.83,VALID,0,VALID,103.848,VALID,0.105969,VALID,23.09,VALID,302,VALID,0,
2011-01-19, 02:01:04,VALID,1008.79,VALID,0,VALID,103.817,VALID,0,VALID,23.09,VALID,302,VALID,0,
2011-01-19, 02:02:04,VALID,1008.83,VALID,0,VALID,103.832,VALID,0,VALID,23.1112,VALID,302,VALID,0,
2011-01-19, 02:03:04,VALID,1008.78,VALID,0,VALID,103.809,VALID,0,VALID,23.1095,VALID,302,VALID,0,
2011-01-19, 02:04:04,VALID,1008.79,VALID,0,VALID,103.794,VALID,0,VALID,23.09,VALID,302,VALID,0,
2011-01-19, 02:05:04,VALID,1008.77,VALID,0,VALID,103.802,VALID,0,VALID,23.1112,VALID,302,VALID,0,
2011-01-19, 02:06:04,VALID,1008.78,VALID,0,VALID,103.779,VALID,0,VALID,23.09,VALID,302,VALID,0,
2011-01-19, 02:07:04,VALID,1008.73,VALID,0,VALID,103.787,VALID,0,VALID,23.1095,VALID,302,VALID,0,
2011-01-19, 02:08:04,VALID,1008.7,VALID,0,VALID,103.802,VALID,0,VALID,23.1485,VALID,302,VALID,0,
2011-01-19, 02:09:04,VALID,1008.71,VALID,0,VALID,103.825,VALID,0,VALID,23.1502,VALID,302,VALID,0,
2011-01-19, 02:10:04,VALID,1008.68,VALID,0,VALID,103.825,VALID,0,VALID,23.1485,VALID,302,VALID,0,
2011-01-19, 02:11:04,VALID,1008.67,VALID,0,VALID,103.817,VALID,0.105969,VALID,23.1467,VALID,302,VALID,0,
2011-01-19, 02:12:04,VALID,1008.66,VALID,0,VALID,103.809,VALID,0,VALID,23.1662,VALID,302,VALID,0,
2011-01-19, 02:13:04,VALID,1008.64,VALID,0,VALID,103.802,VALID,0.105969,VALID,23.1662,VALID,302,VALID,0,
2011-01-19, 02:14:04,VALID,1008.66,VALID,0,VALID,103.802,VALID,0.105969,VALID,23.1662,VALID,302,VALID,0,
2011-01-19, 02:15:04,VALID,1008.61,VALID,0,VALID,103.802,VALID,0.105969,VALID,23.1662,VALID,302,VALID,0,
2011-01-19, 02:16:04,VALID,1008.59,VALID,0,VALID,103.787,VALID,0,VALID,23.1857,VALID,302,VALID,0,
2011-01-19, 02:17:04,VALID,1008.59,VALID,0,VALID,103.779,VALID,0.105969,VALID,23.1857,VALID,302,VALID,0,
2011-01-19, 02:18:04,VALID,1008.59,VALID,0,VALID,103.764,VALID,0.105969,VALID,23.2051,VALID,302,VALID,0,
2011-01-19, 02:19:04,VALID,1008.54,VALID,0,VALID,103.794,VALID,0.105969,VALID,23.2246,VALID,302,VALID,0,
2011-01-19, 02:20:04,VALID,1008.52,VALID,0,VALID,103.787,VALID,0,VALID,23.2459,VALID,302,VALID,0,
2011-01-19, 02:21:04,VALID,1008.53,VALID,0,VALID,103.726,VALID,0,VALID,23.2459,VALID,302,VALID,0,
2011-01-19, 02:22:04,VALID,1008.49,VALID,0,VALID,103.718,VALID,0,VALID,23.2246,VALID,302,VALID,0,
2011-01-19, 02:23:04,VALID,1008.5,VALID,0,VALID,103.695,VALID,0.105969,VALID,23.2459,VALID,302,VALID,0,
2011-01-19, 02:24:04,VALID,1008.54,VALID,0,VALID,103.649,VALID,0,VALID,23.2441,VALID,302,VALID,0,
2011-01-19, 02:25:04,VALID,1008.51,VALID,0,VALID,103.634,VALID,0.105969,VALID,23.2441,VALID,302,VALID,0,
2011-01-19, 02:26:04,VALID,1008.51,VALID,0,VALID,103.626,VALID,0,VALID,23.2636,VALID,302,VALID,0,
2011-01-19, 02:27:04,VALID,1008.5,VALID,0,VALID,103.626,VALID,0.105969,VALID,23.2636,VALID,302,VALID,0,
2011-01-19, 02:28:04,VALID,1008.49,VALID,0,VALID,103.603,VALID,0.105969,VALID,23.2831,VALID,302,VALID,0,
2011-01-19, 02:29:04,VALID,1008.49,VALID,0,VALID,103.588,VALID,0.105969,VALID,23.2831,VALID,302,VALID,0.00234375,
2011-01-19, 02:30:04,VALID,1008.47,VALID,0,VALID,103.573,VALID,0.105969,VALID,23.2831,VALID,302,VALID,0.0464844,
2011-01-19, 02:31:04,VALID,1008.46,VALID,0,VALID,103.573,VALID,0.105969,VALID,23.3238,VALID,302,VALID,0,
2011-01-19, 02:32:04,VALID,1008.44,VALID,0,VALID,103.542,VALID,0.105969,VALID,23.3026,VALID,302,VALID,0,
2011-01-19, 02:33:04,VALID,1008.42,VALID,0,VALID,103.52,VALID,0.105969,VALID,23.3043,VALID,302,VALID,0,
2011-01-19, 02:34:04,VALID,1008.42,VALID,0,VALID,103.466,VALID,0.105969,VALID,23.2831,VALID,302,VALID,0.0832031,
2011-01-19, 02:35:04,VALID,1008.4,VALID,0,VALID,103.451,VALID,0.105969,VALID,23.3026,VALID,302,VALID,0,
2011-01-19, 02:36:04,VALID,1008.39,VALID,0,VALID,103.42,VALID,0.105969,VALID,23.3026,VALID,302,VALID,0.148438,
2011-01-19, 02:37:04,VALID,1008.39,VALID,0,VALID,103.382,VALID,0.105969,VALID,23.3238,VALID,302,VALID,0,
2011-01-19, 02:38:04,VALID,1008.37,VALID,0,VALID,103.344,VALID,0.105969,VALID,23.2831,VALID,302,VALID,0,
2011-01-19, 02:39:04,VALID,1008.41,VALID,0,VALID,103.283,VALID,0.105969,VALID,23.3026,VALID,302,VALID,0,
2011-01-19, 02:40:04,VALID,1008.38,VALID,0,VALID,103.222,VALID,0,VALID,23.3433,VALID,302,VALID,0,
2011-01-19, 02:41:04,VALID,1008.4,VALID,0,VALID,103.245,VALID,0,VALID,23.3238,VALID,302,VALID,0,
2011-01-19, 02:42:04,VALID,1008.36,VALID,0,VALID,103.161,VALID,0,VALID,23.3238,VALID,302,VALID,0,
2011-01-19, 02:43:04,VALID,1008.34,VALID,0,VALID,103.146,VALID,0,VALID,23.3238,VALID,302,VALID,0.156641,
2011-01-19, 02:44:04,VALID,1008.33,VALID,0,VALID,103.131,VALID,0,VALID,23.3238,VALID,302,VALID,0,
2011-01-19, 02:45:04,VALID,1008.34,VALID,0,VALID,103.131,VALID,0,VALID,23.3433,VALID,302,VALID,0,
2011-01-19, 02:46:04,VALID,1008.33,VALID,0,VALID,103.1,VALID,0,VALID,23.3238,VALID,302,VALID,0,
2011-01-19, 02:47:04,VALID,1008.33,VALID,0,VALID,103.077,VALID,0,VALID,23.3238,VALID,302,VALID,0,
2011-01-19, 02:48:04,VALID,1008.33,VALID,0,VALID,103.054,VALID,0,VALID,23.3645,VALID,302,VALID,0,
2011-01-19, 02:49:04,VALID,1008.34,VALID,0,VALID,103.032,VALID,0,VALID,23.3433,VALID,302,VALID,0,
2011-01-19, 02:50:04,VALID,1008.37,VALID,0,VALID,103.062,VALID,0,VALID,23.3238,VALID,302,VALID,0,
2011-01-19, 02:51:04,VALID,1008.38,VALID,0,VALID,103.07,VALID,0,VALID,23.322,VALID,302,VALID,0,
2011-01-19, 02:52:04,VALID,1008.35,VALID,0,VALID,103.085,VALID,0,VALID,23.3433,VALID,302,VALID,0,
2011-01-19, 02:53:04,VALID,1008.35,VALID,0,VALID,103.146,VALID,0,VALID,23.3628,VALID,302,VALID,0,
2011-01-19, 02:54:04,VALID,1008.37,VALID,0,VALID,103.199,VALID,0,VALID,23.3628,VALID,302,VALID,0,
2011-01-19, 02:55:04,VALID,1008.35,VALID,0,VALID,103.23,VALID,0,VALID,23.3433,VALID,302,VALID,0,
2011-01-19, 02:56:04,VALID,1008.37,VALID,0,VALID,103.207,VALID,0,VALID,23.384,VALID,302,VALID,0,
2011-01-19, 02:57:04,VALID,1008.39,VALID,0,VALID,103.184,VALID,0,VALID,23.3628,VALID,302,VALID,0,
2011-01-19, 02:58:04,VALID,1008.38,VALID,0,VALID,103.161,VALID,0,VALID,23.3433,VALID,302,VALID,0,
2011-01-19, 02:59:04,VALID,1008.38,VALID,0,VALID,103.108,VALID,0,VALID,23.384,VALID,302,VALID,0,
2011-01-19, 03:00:04,VALID,1008.36,VALID,0,VALID,103.146,VALID,0,VALID,23.3823,VALID,302,VALID,0,
2011-01-19, 03:01:04,VALID,1008.37,VALID,0,VALID,103.138,VALID,0,VALID,23.3823,VALID,302,VALID,0,
2011-01-19, 03:02:04,VALID,1008.35,VALID,0,VALID,103.138,VALID,0,VALID,23.3823,VALID,302,VALID,0,
2011-01-19, 03:03:04,VALID,1008.35,VALID,0,VALID,103.1,VALID,0,VALID,23.3823,VALID,302,VALID,0.003125,
2011-01-19, 03:04:04,VALID,1008.33,VALID,0,VALID,103.077,VALID,0,VALID,23.3628,VALID,302,VALID,0.166016,
2011-01-19, 03:05:04,VALID,1008.32,VALID,0,VALID,103.024,VALID,0,VALID,23.3628,VALID,302,VALID,0,
2011-01-19, 03:06:04,VALID,1008.32,VALID,0,VALID,103.001,VALID,0,VALID,23.384,VALID,302,VALID,0,
2011-01-19, 03:07:04,VALID,1008.3,VALID,0,VALID,102.993,VALID,0,VALID,23.3823,VALID,302,VALID,0,
2011-01-19, 03:08:04,VALID,1008.3,VALID,0,VALID,102.948,VALID,0,VALID,23.3823,VALID,302,VALID,0,
2011-01-19, 03:09:04,VALID,1008.26,VALID,0,VALID,102.986,VALID,0,VALID,23.4035,VALID,302,VALID,0,
2011-01-19, 03:10:04,VALID,1008.3,VALID,0,VALID,102.978,VALID,0,VALID,23.4017,VALID,302,VALID,0,
2011-01-19, 03:11:04,VALID,1008.28,VALID,0,VALID,103.001,VALID,0.105969,VALID,23.3805,VALID,302,VALID,0,
2011-01-19, 03:12:04,VALID,1008.24,VALID,0,VALID,102.978,VALID,0,VALID,23.3805,VALID,302,VALID,0,
2011-01-19, 03:13:04,VALID,1008.21,VALID,0,VALID,102.932,VALID,0.105969,VALID,23.361,VALID,302,VALID,0,
2011-01-19, 03:14:04,VALID,1008.2,VALID,0,VALID,102.925,VALID,0.105969,VALID,23.3628,VALID,302,VALID,0,
2011-01-19, 03:15:04,VALID,1008.19,VALID,0,VALID,102.963,VALID,0.105969,VALID,23.3433,VALID,302,VALID,0,
2011-01-19, 03:16:04,VALID,1008.16,VALID,0,VALID,103.024,VALID,0.105969,VALID,23.3433,VALID,302,VALID,0,
2011-01-19, 03:17:04,VALID,1008.17,VALID,0,VALID,103.07,VALID,0.105969,VALID,23.3238,VALID,302,VALID,0,
2011-01-19, 03:18:04,VALID,1008.17,VALID,0,VALID,103.123,VALID,0.105969,VALID,23.3433,VALID,302,VALID,0,
2011-01-19, 03:19:04,VALID,1008.15,VALID,0,VALID,103.161,VALID,0.105969,VALID,23.3238,VALID,302,VALID,0,
2011-01-19, 03:20:04,VALID,1008.15,VALID,0,VALID,103.215,VALID,0.105969,VALID,23.3026,VALID,302,VALID,0,
2011-01-19, 03:21:04,VALID,1008.15,VALID,0,VALID,103.26,VALID,0.105969,VALID,23.3026,VALID,302,VALID,0,
2011-01-19, 03:22:04,VALID,1008.17,VALID,0,VALID,103.314,VALID,0.105969,VALID,23.3026,VALID,302,VALID,0,
2011-01-19, 03:23:04,VALID,1008.17,VALID,0,VALID,103.375,VALID,0,VALID,23.2831,VALID,302,VALID,0,
2011-01-19, 03:24:04,VALID,1008.18,VALID,0,VALID,103.398,VALID,0.105969,VALID,23.2848,VALID,302,VALID,0,
2011-01-19, 03:25:04,VALID,1008.21,VALID,0,VALID,103.39,VALID,0.105969,VALID,23.2636,VALID,302,VALID,0,
2011-01-19, 03:26:04,VALID,1008.24,VALID,0,VALID,103.413,VALID,0.105969,VALID,23.2848,VALID,302,VALID,0,
2011-01-19, 03:27:04,VALID,1008.24,VALID,0,VALID,103.413,VALID,0.105969,VALID,23.2441,VALID,302,VALID,0,
2011-01-19, 03:28:04,VALID,1008.26,VALID,0,VALID,103.428,VALID,0.105969,VALID,23.2441,VALID,302,VALID,0,
2011-01-19, 03:29:04,VALID,1008.24,VALID,0,VALID,103.398,VALID,0.105969,VALID,23.2654,VALID,302,VALID,0,
2011-01-19, 03:30:04,VALID,1008.24,VALID,0,VALID,103.413,VALID,0.105969,VALID,23.2441,VALID,302,VALID,0,
2011-01-19, 03:31:04,VALID,1008.26,VALID,0,VALID,103.405,VALID,0,VALID,23.2246,VALID,302,VALID,0,
2011-01-19, 03:32:04,VALID,1008.29,VALID,0,VALID,103.405,VALID,0.105969,VALID,23.2246,VALID,302,VALID,0,
2011-01-19, 03:33:04,VALID,1008.26,VALID,0,VALID,103.405,VALID,0,VALID,23.2246,VALID,302,VALID,0,
2011-01-19, 03:34:04,VALID,1008.27,VALID,0,VALID,103.42,VALID,0,VALID,23.2459,VALID,302,VALID,0,
2011-01-19, 03:35:04,VALID,1008.31,VALID,0,VALID,103.428,VALID,0,VALID,23.2051,VALID,302,VALID,0.00429688,
2011-01-19, 03:36:04,VALID,1008.32,VALID,0,VALID,103.413,VALID,0,VALID,23.2051,VALID,302,VALID,0,
2011-01-19, 03:37:04,VALID,1008.3,VALID,0,VALID,103.443,VALID,0,VALID,23.1857,VALID,302,VALID,0,
2011-01-19, 03:38:04,VALID,1008.33,VALID,0,VALID,103.459,VALID,0,VALID,23.1857,VALID,302,VALID,0,
2011-01-19, 03:39:04,VALID,1008.32,VALID,0,VALID,103.451,VALID,0.105969,VALID,23.1857,VALID,302,VALID,0,
2011-01-19, 03:40:04,VALID,1008.35,VALID,0,VALID,103.466,VALID,0.105969,VALID,23.1662,VALID,302,VALID,0,
2011-01-19, 03:41:04,VALID,1008.34,VALID,0,VALID,103.481,VALID,0,VALID,23.1679,VALID,302,VALID,0,
2011-01-19, 03:42:04,VALID,1008.36,VALID,0,VALID,103.466,VALID,0,VALID,23.1679,VALID,302,VALID,0,
2011-01-19, 03:43:04,VALID,1008.37,VALID,0,VALID,103.474,VALID,0,VALID,23.1679,VALID,302,VALID,0,
2011-01-19, 03:44:04,VALID,1008.36,VALID,0,VALID,103.474,VALID,0,VALID,23.1485,VALID,302,VALID,0,
2011-01-19, 03:45:04,VALID,1008.35,VALID,0,VALID,103.481,VALID,0,VALID,23.1502,VALID,302,VALID,0,
2011-01-19, 03:46:04,VALID,1008.32,VALID,0,VALID,103.504,VALID,0,VALID,23.129,VALID,302,VALID,0,
2011-01-19, 03:47:04,VALID,1008.31,VALID,0,VALID,103.535,VALID,0,VALID,23.1095,VALID,302,VALID,0,
2011-01-19, 03:48:04,VALID,1008.29,VALID,0,VALID,103.535,VALID,0,VALID,23.129,VALID,302,VALID,0.335938,
2011-01-19, 03:49:04,VALID,1008.3,VALID,0,VALID,103.52,VALID,0,VALID,23.1112,VALID,302,VALID,0.287109,
2011-01-19, 03:50:04,VALID,1008.29,VALID,0,VALID,103.52,VALID,0,VALID,23.0705,VALID,302,VALID,0.216406,
2011-01-19, 03:51:04,VALID,1008.26,VALID,0,VALID,103.535,VALID,0,VALID,23.0918,VALID,302,VALID,0.205859,
2011-01-19, 03:52:04,VALID,1008.26,VALID,0,VALID,103.504,VALID,0,VALID,23.0511,VALID,302,VALID,0.273438,
2011-01-19, 03:53:04,VALID,1008.25,VALID,0,VALID,103.512,VALID,0,VALID,23.0316,VALID,302,VALID,0.268359,